EZY38FD EGCC-GMMX

Flight info

Callsign EZY38FD
Flight time N/A
Altitude 34000
Route ASMIM DCT NOKIN P17 BEPHE DCT OSSEP DCT ELNIF DCT ZESPE DCT KLAKI DCT SALCO/N0442F350 DCT BALDA DCT BATAX DCT NINOS DCT PINOX DCT TOFEF DCT ALAGU DCT UBESO DCT AMSEL UR722 MABAP
Aircraft A21N/M-SDE2E3FGHIJ1RWXY/LB1

Departure

Time N/A
Airport Manchester Airport (EGCC)

Arrival

Time 2026-04-30 12:48
Airport Marrakesh Menara Airport (GMMX)
Time Latitude Longitude Altitude Speed Heading
2026-04-30 12:11 34.48811 -7.75914 34096 ft 422 kts 179°
2026-04-30 12:12 34.42946 -7.75515 34108 ft 421 kts 179°
2026-04-30 12:12 34.37087 -7.75121 34111 ft 421 kts 179°
2026-04-30 12:13 34.31232 -7.74717 34105 ft 421 kts 179°
2026-04-30 12:13 34.25409 -7.74313 34096 ft 422 kts 179°
2026-04-30 12:14 34.19545 -7.73905 34103 ft 421 kts 179°
2026-04-30 12:14 34.13692 -7.73387 34106 ft 421 kts 178°
2026-04-30 12:15 34.07847 -7.72846 34098 ft 421 kts 178°
2026-04-30 12:15 34.02035 -7.72308 34103 ft 421 kts 178°
2026-04-30 12:16 33.96186 -7.71770 34086 ft 421 kts 178°
2026-04-30 12:16 33.90334 -7.71231 34092 ft 422 kts 178°
2026-04-30 12:17 33.81541 -7.70417 34080 ft 422 kts 178°
2026-04-30 12:17 33.75714 -7.69881 34075 ft 422 kts 178°
2026-04-30 12:18 33.69885 -7.69345 33795 ft 412 kts 178°
2026-04-30 12:18 33.67064 -7.69090 33520 ft 403 kts 178°
2026-04-30 12:18 33.64283 -7.68837 33245 ft 399 kts 178°
2026-04-30 12:19 33.61526 -7.68584 32979 ft 397 kts 178°
2026-04-30 12:19 33.58770 -7.68331 32714 ft 395 kts 178°
2026-04-30 12:19 33.56034 -7.68095 32453 ft 393 kts 180°
2026-04-30 12:19 33.53315 -7.68184 32192 ft 388 kts 189°
2026-04-30 12:20 33.50698 -7.68873 31937 ft 384 kts 200°
2026-04-30 12:20 33.48263 -7.70137 31687 ft 380 kts 209°
2026-04-30 12:20 33.45964 -7.71681 31320 ft 377 kts 211°
2026-04-30 12:20 33.43732 -7.73233 30883 ft 374 kts 211°
2026-04-30 12:21 33.41473 -7.74776 30473 ft 372 kts 211°
2026-04-30 12:21 33.39227 -7.76289 30013 ft 370 kts 211°
2026-04-30 12:21 33.36985 -7.77786 29491 ft 368 kts 211°
2026-04-30 12:21 33.34746 -7.79271 28987 ft 366 kts 210°
2026-04-30 12:22 33.32528 -7.80740 28522 ft 363 kts 210°
2026-04-30 12:22 33.30320 -7.82199 28078 ft 360 kts 210°
2026-04-30 12:22 33.28135 -7.83642 27644 ft 357 kts 210°
2026-04-30 12:22 33.25968 -7.85073 27192 ft 355 kts 210°
2026-04-30 12:23 33.23838 -7.86478 26762 ft 353 kts 211°
2026-04-30 12:23 33.21698 -7.87889 26323 ft 351 kts 211°
2026-04-30 12:23 33.19565 -7.89296 25889 ft 349 kts 211°
2026-04-30 12:23 33.17446 -7.90693 25481 ft 347 kts 211°
2026-04-30 12:24 33.15339 -7.92072 25077 ft 345 kts 210°
2026-04-30 12:24 33.13241 -7.93452 24648 ft 343 kts 211°
2026-04-30 12:24 33.11153 -7.94830 24222 ft 343 kts 211°
2026-04-30 12:24 33.09069 -7.96201 23800 ft 342 kts 210°
2026-04-30 12:25 33.06984 -7.97564 23338 ft 340 kts 210°
2026-04-30 12:25 33.04911 -7.98923 22889 ft 339 kts 211°
2026-04-30 12:25 33.02851 -8.00274 22437 ft 337 kts 211°
2026-04-30 12:25 33.00802 -8.01616 21985 ft 335 kts 211°
2026-04-30 12:26 32.98762 -8.02954 21562 ft 333 kts 211°
2026-04-30 12:26 32.96735 -8.04280 21143 ft 331 kts 211°
2026-04-30 12:26 32.94740 -8.05585 20733 ft 330 kts 210°
2026-04-30 12:26 32.92585 -8.06619 20327 ft 331 kts 196°
2026-04-30 12:27 32.90341 -8.07087 19956 ft 331 kts 191°
2026-04-30 12:27 32.88062 -8.07439 19566 ft 330 kts 190°
2026-04-30 12:27 32.85785 -8.07784 19197 ft 330 kts 190°
2026-04-30 12:27 32.83509 -8.08138 18819 ft 330 kts 190°
2026-04-30 12:28 32.81230 -8.08502 18453 ft 330 kts 191°
2026-04-30 12:28 32.78950 -8.08873 18050 ft 330 kts 191°
2026-04-30 12:28 32.76676 -8.09244 17662 ft 330 kts 190°
2026-04-30 12:28 32.74405 -8.09615 17284 ft 329 kts 190°
2026-04-30 12:29 32.72134 -8.09988 16901 ft 329 kts 190°
2026-04-30 12:29 32.69890 -8.10354 16536 ft 328 kts 190°
2026-04-30 12:29 32.67634 -8.10725 16203 ft 327 kts 190°
2026-04-30 12:29 32.65386 -8.11092 15855 ft 325 kts 190°
2026-04-30 12:30 32.63151 -8.11459 15525 ft 324 kts 189°
2026-04-30 12:30 32.60919 -8.11824 15181 ft 322 kts 189°
2026-04-30 12:30 32.58696 -8.12187 14827 ft 322 kts 189°
2026-04-30 12:30 32.56504 -8.12546 14475 ft 322 kts 189°
2026-04-30 12:31 32.54284 -8.12908 14135 ft 321 kts 189°
2026-04-30 12:31 32.52072 -8.13270 13793 ft 318 kts 189°
2026-04-30 12:31 32.49895 -8.13624 13425 ft 313 kts 189°
2026-04-30 12:31 32.47759 -8.13973 13077 ft 307 kts 189°
2026-04-30 12:32 32.45657 -8.14316 12744 ft 301 kts 189°
2026-04-30 12:32 32.43597 -8.14651 12423 ft 296 kts 189°
2026-04-30 12:32 32.41560 -8.14982 12099 ft 295 kts 189°
2026-04-30 12:32 32.39532 -8.15313 11784 ft 294 kts 189°
2026-04-30 12:33 32.37511 -8.15642 11468 ft 293 kts 189°
2026-04-30 12:33 32.35489 -8.15971 11151 ft 292 kts 189°
2026-04-30 12:33 32.33482 -8.16298 10842 ft 291 kts 188°
2026-04-30 12:33 32.31470 -8.16625 10530 ft 291 kts 188°
2026-04-30 12:34 32.29470 -8.16950 10227 ft 290 kts 188°
2026-04-30 12:34 32.27491 -8.17273 9960 ft 284 kts 188°
2026-04-30 12:34 32.25570 -8.17584 9622 ft 281 kts 188°
2026-04-30 12:34 32.23635 -8.17897 9287 ft 281 kts 188°
2026-04-30 12:35 32.21706 -8.18209 8960 ft 280 kts 188°
2026-04-30 12:35 32.19775 -8.18521 8668 ft 278 kts 188°
2026-04-30 12:35 32.17891 -8.18827 8524 ft 267 kts 188°
2026-04-30 12:35 32.16106 -8.19115 8559 ft 250 kts 188°
2026-04-30 12:36 32.14397 -8.19392 8596 ft 246 kts 188°
2026-04-30 12:36 32.12700 -8.19665 8540 ft 246 kts 188°
2026-04-30 12:36 32.11002 -8.19937 8485 ft 245 kts 188°
2026-04-30 12:36 32.09329 -8.20205 8373 ft 245 kts 188°
2026-04-30 12:37 32.07638 -8.20476 8228 ft 245 kts 188°
2026-04-30 12:37 32.05949 -8.20747 8082 ft 245 kts 188°
2026-04-30 12:37 32.04261 -8.21021 7934 ft 245 kts 188°
2026-04-30 12:37 32.02568 -8.21297 7787 ft 244 kts 188°
2026-04-30 12:38 32.00888 -8.21572 7639 ft 243 kts 188°
2026-04-30 12:38 31.99212 -8.21849 7494 ft 243 kts 188°
2026-04-30 12:38 31.97539 -8.22123 7349 ft 243 kts 188°
2026-04-30 12:38 31.95866 -8.22398 7201 ft 242 kts 188°
2026-04-30 12:39 31.94190 -8.22675 7056 ft 243 kts 188°
2026-04-30 12:39 31.92546 -8.22949 6916 ft 242 kts 188°
2026-04-30 12:39 31.90875 -8.23230 6771 ft 243 kts 188°
2026-04-30 12:39 31.89204 -8.23513 6632 ft 243 kts 188°
2026-04-30 12:40 31.87538 -8.23797 6485 ft 242 kts 188°
2026-04-30 12:40 31.85865 -8.24082 6332 ft 243 kts 188°
2026-04-30 12:40 31.84196 -8.24368 6180 ft 242 kts 188°
2026-04-30 12:40 31.82528 -8.24653 6029 ft 241 kts 188°
2026-04-30 12:41 31.80864 -8.24936 5876 ft 241 kts 188°
2026-04-30 12:41 31.79204 -8.25217 5690 ft 241 kts 188°
2026-04-30 12:41 31.77558 -8.25494 5497 ft 241 kts 188°
2026-04-30 12:41 31.75899 -8.25773 5300 ft 240 kts 188°
2026-04-30 12:42 31.74244 -8.26050 5106 ft 240 kts 188°
2026-04-30 12:42 31.72590 -8.26327 4908 ft 239 kts 188°
2026-04-30 12:42 31.70944 -8.26600 4705 ft 239 kts 188°
2026-04-30 12:42 31.69295 -8.26871 4503 ft 239 kts 188°
2026-04-30 12:43 31.67643 -8.27024 4295 ft 239 kts 173°
2026-04-30 12:43 31.66075 -8.26401 4092 ft 240 kts 152°
2026-04-30 12:43 31.64625 -8.25418 3900 ft 240 kts 149°
2026-04-30 12:43 31.63318 -8.24233 3707 ft 236 kts 132°
2026-04-30 12:44 31.62459 -8.22645 3481 ft 226 kts 110°
2026-04-30 12:44 31.62091 -8.20923 3288 ft 213 kts 97°
2026-04-30 12:44 31.61973 -8.19258 3164 ft 196 kts 92°
2026-04-30 12:44 31.61895 -8.17764 3124 ft 172 kts 93°
2026-04-30 12:45 31.61800 -8.16380 3168 ft 170 kts 94°
2026-04-30 12:45 31.61686 -8.15020 3158 ft 156 kts 94°
2026-04-30 12:45 31.61616 -8.14199 3046 ft 151 kts 93°
2026-04-30 12:45 31.61508 -8.12973 2856 ft 149 kts 95°
2026-04-30 12:46 31.61403 -8.11765 2659 ft 149 kts 94°
2026-04-30 12:46 31.61298 -8.10567 2454 ft 147 kts 95°
2026-04-30 12:46 31.61195 -8.09367 2244 ft 148 kts 95°
2026-04-30 12:46 31.61091 -8.08160 2087 ft 150 kts 96°
2026-04-30 12:47 31.60983 -8.06942 1858 ft 150 kts 97°
2026-04-30 12:47 31.60874 -8.05721 1670 ft 149 kts 96°
2026-04-30 12:47 31.60771 -8.04527 1535 ft 138 kts 96°
2026-04-30 12:47 31.60689 -8.03618 1542 ft 85 kts 96°
2026-04-30 12:48 31.60635 -8.03151 1552 ft 40 kts 99°
2026-04-30 12:48 31.60622 -8.02866 1553 ft 30 kts 94°
2026-04-30 12:48 31.60603 -8.02664 1555 ft 12 kts 102°
2026-04-30 12:48 31.60555 -8.02633 1555 ft 7 kts 172°
2026-04-30 12:49 31.60506 -8.02641 1555 ft 6 kts 189°
2026-04-30 12:49 31.60463 -8.02648 1555 ft 5 kts 187°
2026-04-30 12:49 31.60438 -8.02642 1555 ft 4 kts 140°
2026-04-30 12:49 31.60428 -8.02612 1555 ft 0 kts 96°
2026-04-30 12:52 31.60427 -8.02601 1555 ft 3 kts 99°
2026-04-30 12:52 31.60402 -8.02584 1555 ft 5 kts 166°
2026-04-30 12:52 31.60358 -8.02585 1555 ft 7 kts 187°
2026-04-30 12:53 31.60313 -8.02591 1555 ft 1 kts 186°
2026-04-30 12:53 31.60311 -8.02591 1555 ft 0 kts 186°